OPS 0100 DEB *, 4843

Orbit data source: Space-Track

OPS 0100 DEB *, 4843 is space debris in LEO originally from a launch on Fri, 14 Apr 1967 UTC launched from the Air Force Western Test Range (AFWTR). Debris objects in space refer to the collection of defunct objects orbiting the Earth. Examples of debris include non-operational satellites, rocket bodies, and fragments generated from explosions, collisions, or faulty payload assembly.

Loading next visibility...
Identifier
4843, 1967-034E
Orbit
LEO
Country
Flag of USUS
Related business
Manufacturer
Unknown
Mission
Spacecraft
Bus & Motor
Unknown
Mass
Unknown
Launch date (UTC)
1967-04-14 (59 years ago)
Launch vehicle
Unknown
Launch site
Air Force Western Test Range (AFWTR)
Object type
Payload
Rocket body
Debris
Shape & HBR
Unknown shape, 0.1 m
Radar Cross Section
Small (<0.1 m²)

Expand to show TLE details & history
Last TLE update: 15 hours ago

TLE from 15 hours ago
0 OPS 0100 DEB *
1 04843U 67034E   25300.02268038  .00000158  00000-0  22485-3 0  9996
2 04843  90.3651 132.6130 0029424  89.6204  63.0328 13.52584279242120
Epoch: 2025-10-27T00:32Z
TLE epoch observation values (Epoch: 2025-10-27T00:32:39.584Z)
Latitude
27.08066°
Longitude
-90.9967°
Altitude
1,056.253 km
Speed
7.331 km/s
True Right ascension
20h 51m 11s
True Declination
26° 56' 50"
Sunlit
Object was in daylight at epoch
Visualization orbit readout
Latitude
Unknown
Longitude
Unknown
Altitude
Unknown
Speed
Unknown
Apparent Right ascension
Unknown
Apparent Declination
Unknown
Sunlit
N/A
Visualization observer readout
Local Sidereal Time
11:01:51
Azimuth
Unknown
Elevation
Unknown
Doppler factor
Unknown
Orbital elements
Apogee altitude
1,081.697 km
Perigee altitude
1,037.926 km
Semi-major axis
7,437.949 km
Eccentricity
0.00294
Inclination
90.3651°
RAAN
132.613°
Arg. of periapsis
89.6204°
True anomaly
63.33381°
Mean anomaly
63.0328°
Eccentric anomaly
63.18326°
Mean motion
3.38348 °/min
Orbital period
106.4 mins
BSTAR
0.00022485
Loading maneuver chart data...
Computing Atmospheric mass density...
Loading historical data...
Loading historical data...
Loading historical data...
Loading historical data...
Loading historical data...
Loading historical data...
Loading historical data...

Documentation

Showing up to 5 results
|